Kejimkujik, Nova Scotia

7:49 AM AST on February 27, 2017 (GMT -0400)
Kejimkujik

Weather History for CWKG - February, 2013

Change the Weather History Date:

Monday, February 18, 2013

  Actual Average (CYZX) Record (CYZX)
Temperature  
Mean Temperature 22 °F -  
Max Temperature 25 °F 30 °F 57 °F (2008)
Min Temperature 18 °F 14 °F 5 °F (2006)
Degree Days  
Heating Degree Days 44    
Moisture  
Dew Point 19 °F    
Average Humidity 90    
Maximum Humidity 98    
Minimum Humidity 76    
Precipitation  
Precipitation 0.00 in - - ()
Sea Level Pressure  
Sea Level Pressure 29.25 in    
Wind  
Wind Speed 12 mph ()    
Max Wind Speed 16 mph    
Max Gust Speed 39 mph    
Averages and records for this station are not official NWS values.
T = Trace of Precipitation, MM = Missing Value Source: Averaged Metar Reports

Daily Weather History Graph

Daily Weather History Graph

Search for Another Location

Airport or City:

Trip Planner

Search our weather history database for the weather conditions in past years. The results will help you decide how hot, cold, wet, or windy it might be!

Date:

Astronomy

Feb. 18, 2013 Rise Set
Actual Time 7:15 AM AST 5:54 PM AST
Civil Twilight 6:46 AM AST 6:23 PM AST
Nautical Twilight 6:12 AM AST 6:57 PM AST
Astronomical Twilight 5:38 AM AST 7:31 PM AST
Moon 11:30 AM AST (2/18) 1:58 AM AST (2/18)
Length of Visible Light 11h 37m
Length of Day
10h 38m
First Quarter, 58% of the Moon is Illuminated
Feb 18
First Quarter
Feb 25
Full
Mar 4
Last Quarter
Mar 11
New
Mar 19
First Quarter

Hourly Weather History & Observations

Time (AST) Temp. Windchill Dew Point Humidity Pressure Visibility Wind Dir Wind Speed Gust Speed Precip Events Conditions
12:00 AM 25.7 °F 14.0 °F 25.2 °F 98% 28.78 in - NW 13.8 mph 29.9 mph N/A   Unknown
1:00 AM 25.0 °F 12.6 °F 24.4 °F 98% 28.84 in - NW 15.0 mph 38.0 mph N/A   Unknown
2:00 AM 24 °F - 23 °F 96% 28.90 in - NW 13.8 mph - -  
2:00 AM 24.1 °F 12.0 °F 23.4 °F 97% 28.90 in - NW 13.8 mph 36.8 mph N/A   Unknown
3:00 AM 22.6 °F 9.6 °F 21.7 °F 96% 28.94 in - NW 15.0 mph 34.5 mph N/A   Unknown
4:00 AM 21.2 °F 8.9 °F 20.3 °F 96% 28.99 in - NW 12.7 mph 26.5 mph N/A   Unknown
5:00 AM 20.7 °F 8.8 °F 19.8 °F 96% 29.04 in - NW 11.5 mph 24.2 mph N/A   Unknown
6:00 AM 20.1 °F 8.1 °F 19.0 °F 96% 29.08 in - NW 11.5 mph 23.0 mph N/A   Unknown
7:00 AM 19.2 °F 6.4 °F 18.1 °F 96% 29.12 in - NW 12.7 mph 32.2 mph N/A   Unknown
8:00 AM 19 °F - 18 °F 92% 29.17 in - NW 13.8 mph - -  
8:00 AM 18.7 °F 5.1 °F 17.6 °F 96% 29.17 in - NW 13.8 mph 25.3 mph N/A   Unknown
9:00 AM 18.9 °F 5.3 °F 17.4 °F 94% 29.20 in - NW 13.8 mph 24.2 mph N/A   Unknown
10:00 AM 18.9 °F 5.9 °F 17.4 °F 94% 29.24 in - NW 12.7 mph 24.2 mph N/A   Unknown
11:00 AM 20.5 °F 8.6 °F 18.7 °F 93% 29.28 in - NW 11.5 mph 24.2 mph N/A   Unknown
12:00 PM 21.4 °F 7.5 °F 18.5 °F 89% 29.30 in - NW 16.1 mph 31.1 mph N/A   Unknown
1:00 PM 22.3 °F 10.8 °F 19.2 °F 88% 29.33 in - NW 11.5 mph 28.8 mph N/A   Unknown
2:00 PM 22 °F - 18 °F 76% 29.35 in - NW 13.8 mph - -  
2:00 PM 21.7 °F 9.0 °F 17.6 °F 84% 29.35 in - NW 13.8 mph 31.1 mph N/A   Unknown
3:00 PM 21.7 °F 8.0 °F 16.3 °F 80% 29.38 in - NW 16.1 mph 39.1 mph N/A   Unknown
4:00 PM 22.8 °F 10.9 °F 18.3 °F 83% 29.42 in - NW 12.7 mph 27.6 mph N/A   Unknown
5:00 PM 22.6 °F 11.3 °F 18.3 °F 83% 29.44 in - NW 11.5 mph 19.6 mph N/A   Unknown
6:00 PM 22.8 °F 11.5 °F 19.2 °F 86% 29.48 in - NW 11.5 mph 25.3 mph N/A   Unknown
7:00 PM 23.0 °F 10.6 °F 19.0 °F 85% 29.52 in - NW 13.8 mph 26.5 mph N/A   Unknown
8:00 PM 23 °F - 19 °F 79% 29.56 in - NW 10.4 mph - -  
9:00 PM 23.2 °F 12.6 °F 18.3 °F 82% 29.60 in - NNW 10.4 mph 21.9 mph N/A   Unknown
10:00 PM 22.6 °F 11.3 °F 18.1 °F 83% 29.63 in - NW 11.5 mph 21.9 mph N/A   Unknown
11:00 PM 22.3 °F 12.2 °F 17.8 °F 83% 29.65 in - NW 9.2 mph 19.6 mph N/A   Unknown